STARLINK-35509, 66199

Orbit data source: Space-Track

STARLINK-35509, 66199 is a payload satellite owned by SpaceX/Seattle (US) in LEO that was launched on Sun, 26 Oct 2025 UTC via an FALCON 9 launch vehicle from the Air Force Eastern Test Range (AFETR). Payload-class satellites include a variety of spacecraft equipped with specific instruments for various scientific and technological missions. These include communications satellites like Starlink; space stations such as the ISS; scientific satellites like the Hubble; Earth observation satellites from companies like Planet Labs, Umbra, and HawkEye 360; GPS; miniature CubeSats for education and research; and military/defense satellites.

Loading next visibility...
Identifier
66199, 2025-243Y
Orbit
LEO
Country
Flag of USUS
Related business
Manufacturer
SpaceX/Seattle
Mission
Operational Commercial Communications
Bus & Motor
STARLINK V2MO, Unknown motor
Mass
575 kg wet, ~530 kg dry
Launch date (UTC)
2025-10-26 (8 months ago)
Launch vehicle
FALCON 9
Launch site
Air Force Eastern Test Range (AFETR)
Object type
Payload
Rocket body
Debris
Shape & HBR
Box + 2 Pan, 17.7 m
Radar Cross Section
36.964 m², Large (>1 m²)

Expand to show TLE details & history
Last TLE update: 23 hours ago

TLE from 23 hours ago
0 STARLINK-35509
1 66199U 25243Y   26170.89411521  .00024297  00000-0  82947-3 0  9991
2 66199  53.1604 130.3848 0001404  95.3730 264.7431 15.30212224 36306
Epoch: 2026-06-19T21:27Z
TLE epoch observation values (Epoch: 2026-06-19T21:27:31.554Z)
Latitude
-0°
Longitude
-99.61322°
Altitude
476.167 km
Speed
7.629 km/s
True Right ascension
08h 41m 32s
True Declination
0° 00' 00"
Sunlit
Object was in daylight at epoch
Visualization orbit readout
Latitude
Unknown
Longitude
Unknown
Altitude
Unknown
Speed
Unknown
Apparent Right ascension
Unknown
Apparent Declination
Unknown
Sunlit
N/A
Visualization observer readout
Local Sidereal Time
07:24:05
Azimuth
Unknown
Elevation
Unknown
Doppler factor
Unknown
Orbital elements
Apogee altitude
476.397 km
Perigee altitude
474.473 km
Semi-major axis
6,853.572 km
Eccentricity
0.00014
Inclination
53.1604°
RAAN
130.3848°
Arg. of periapsis
95.373°
True anomaly
264.72708°
Mean anomaly
264.7431°
Eccentric anomaly
264.73509°
Mean motion
3.82532 °/min
Orbital period
94.11 mins
BSTAR
0.00082947
Loading maneuver chart data...
Computing Atmospheric mass density...
Loading historical data...
Loading historical data...
Loading historical data...
Loading historical data...
Loading historical data...
Loading historical data...
Loading historical data...

Documentation

Showing up to 5 results
|